C/2019 A5 ( PanSTARRS )

Japanese version
Home page
Updated on August 15, 2020

---------------------------------------------------------------------

* Profile

Discovery Date January 4, 2019
Magnitude 20.4 mag
Discoverer Pan-STARRS 1 telescope (Haleakala)

* Pictures

* Orbital Elements

Epoch 2019 June 6.0 TT = JDT 2458640.5
T 2019 June  9.47515 TT                                 Rudenko
q   6.3241630            (2000.0)            P               Q
n   0.00978154     Peri.  356.04208     -0.81853114     -0.26736578
a  21.6536576      Node   146.61933     +0.54917233     -0.62391276
e   0.7079402      Incl.   67.53630     +0.16857204     +0.73433535
P 101
From 61 observations 2019 Jan. 4-2020 June 17, mean residual 0".3.

* Magnitudes Graph

        m1 = 9.0 + 5 log d + 10.0 log r

---------------------------------------------------------------------

The orbital elements are published on M.P.E.C. 2020-P19.
The magnitudes graphs are made with Comet for Windows.

---------------------------------------------------------------------

Copyright(C) Seiichi Yoshida (comet@aerith.net). All rights reserved.